Temperature
26 26 26 27 28 28 29 29 30 31 32 32 31 31 32 32 32 31 30 30 30 29 28 26 25 23 22 21 20 19 19 18 18 18 18 17 17 17 16 16 16 16 16 15
26 26 27 29 29 29 29 28 29 30 32 32 31 31 31 32 32 31 31 31 30 29 27 25 24 23 21 20 19 19 18 18 18 17 17 17 17 16 16 16 15 15 15 15
26 27 29 28 28 28 28 28 29 29 30 31 30 29 30 31 31 31 31 31 30 29 26 24 23 22 20 19 19 18 18 17 17 16 16 16 16 15 15 15 15 14 14 14
27 28 29 28 28 28 28 29 29 29 28 28 29 28 29 30 31 31 31 31 31 29 26 24 22 21 20 19 18 18 17 16 16 16 16 16 15 15 14 14 14 13 13 12
27 28 28 28 28 28 28 29 29 29 28 27 28 27 29 30 30 31 32 31 30 29 27 24 22 20 19 18 18 17 16 16 16 15 15 14 14 14 13 13 13 12 12 11
28 29 29 29 29 29 29 28 28 28 27 26 27 27 27 30 30 31 32 31 30 29 26 24 21 19 18 17 17 16 16 15 15 15 14 14 13 13 12 12 12 11 11 10
26 28 29 30 28 28 28 26 25 25 25 25 28 27 28 30 31 32 31 30 29 28 25 22 20 18 17 16 16 15 15 15 14 14 13 13 13 12 12 11 11 11 10 9
26 26 28 29 28 27 27 26 25 24 25 27 28 28 29 31 31 31 30 29 28 26 24 21 19 17 16 15 15 15 14 14 13 13 12 12 12 11 11 11 10 10 10 9
26 27 29 29 29 28 27 27 28 26 26 25 27 28 30 31 30 30 30 29 28 26 23 20 18 16 15 14 14 14 13 13 12 12 11 11 10 10 10 10 9 9 9 8
26 26 28 30 30 29 28 28 27 26 24 24 25 27 28 28 29 29 29 28 26 24 21 18 16 15 14 13 13 12 12 11 11 11 11 10 10 10 9 9 9 8 8 7
26 25 26 28 28 27 27 27 26 26 26 25 24 26 28 28 28 28 28 26 25 22 19 17 16 14 13 13 12 11 11 11 10 10 9 9 9 9 8 8 7 7 7 6
25 25 24 26 28 29 28 27 27 25 24 25 25 26 29 28 27 26 26 25 23 20 18 16 15 13 12 11 11 10 10 10 9 9 9 8 8 8 7 7 7 6 6 6
22 23 22 24 25 27 27 27 27 26 25 25 24 25 27 27 25 24 22 21 20 19 17 15 14 13 12 11 10 9 9 9 8 8 8 7 7 7 6 6 6 6 6 5
21 21 22 22 24 25 25 26 26 26 25 24 25 25 25 24 23 22 21 20 19 18 16 15 13 12 11 10 9 9 8 8 8 7 7 6 6 6 6 6 6 5 5 5
21 21 22 23 24 24 24 24 24 24 24 24 24 24 23 21 21 20 19 19 18 17 15 14 12 11 10 9 8 8 8 7 7 6 6 5 5 5 5 5 5 5 5 5
21 20 20 21 23 24 24 24 24 24 24 24 24 23 21 19 18 17 17 17 16 15 14 12 11 10 9 8 8 7 7 6 6 5 5 5 5 5 5 5 5 5 5 4
20 19 19 19 22 22 22 23 24 24 24 23 22 20 19 17 16 14 14 14 13 13 12 11 9 8 8 7 7 6 6 5 5 5 4 4 4 4 4 4 4 4 4 4
18 18 18 19 19 19 22 23 22 22 21 21 20 19 18 15 12 11 10 10 10 10 9 8 8 7 6 6 6 5 5 4 4 4 4 4 4 4 4 4 4 3 3 3
19 18 17 18 18 20 21 20 20 20 18 18 18 17 17 15 13 9 8 8 8 8 7 7 7 6 5 5 4 4 4 4 4 4 4 4 4 4 3 3 3 2 2 2
19 18 17 17 17 18 16 19 19 19 17 15 16 16 16 16 15 9 6 6 6 6 6 5 5 5 4 4 4 4 4 4 4 4 3 3 3 3 3 2 2 2 2 1
16 16 16 16 16 17 15 18 18 17 14 14 14 14 13 11 9 6 6 5 5 5 5 4 4 4 4 4 4 4 4 3 3 3 3 3 3 3 2 2 2 1 1 1
16 16 16 16 15 14 15 16 14 13 13 13 12 11 9 7 6 5 5 5 4 4 4 4 4 4 4 4 4 4 4 4 3 3 3 3 3 3 2 2 1 1 1 1
17 16 15 14 13 13 13 12 12 11 11 10 10 9 8 6 5 4 4 4 4 4 4 4 4 4 4 4 4 4 4 4 3 3 3 3 2 2 2 2 1 1 1 0
16 16 16 15 13 12 11 10 10 9 9 8 8 7 6 5 4 4 4 4 4 4 4 4 4 4 4 4 4 4 4 4 4 3 3 3 3 2 2 1 1 0 0 -0
14 15 15 14 13 12 10 9 8 8 7 7 7 6 6 5 4 4 4 4 4 4 5 5 5 5 4 4 4 4 4 4 4 4 4 3 3 2 2 1 1 0 -0 -1
14 14 13 12 11 11 9 8 8 7 7 6 6 6 5 5 5 5 5 5 5 5 5 5 5 5 5 5 4 4 4 4 4 4 4 3 3 2 2 1 1 0 -0 -1
Wind_Speed
16 16 18 19 22 21 22 23 21 19 21 22 21 19 17 15 14 14 15 16 13 11 8 10 14 16 15 14 13 12 11 12 10 8 8 7 7 6 7 6 9 9 9 8
17 21 21 20 20 21 22 23 23 19 16 14 13 15 14 14 17 16 16 15 12 8 7 10 12 14 16 15 13 12 11 11 10 7 6 6 7 6 7 6 7 9 9 6
23 20 22 22 21 20 20 19 19 18 18 16 17 19 18 18 21 21 20 18 16 11 11 14 16 15 16 14 13 12 11 10 9 8 7 7 7 7 6 7 5 6 7 7
22 23 17 14 18 18 16 16 17 18 18 17 19 19 19 20 23 25 23 21 18 14 13 14 16 16 15 13 11 11 10 10 8 8 8 10 8 8 8 7 6 6 6 6
20 21 19 17 15 15 15 15 16 17 17 19 19 20 19 19 20 19 20 20 17 15 13 15 16 16 14 13 11 10 10 9 8 7 7 7 6 6 7 7 7 6 5 5
22 19 17 18 16 14 13 14 15 14 14 19 20 21 22 19 20 18 14 12 11 11 10 13 14 15 14 12 11 11 11 9 7 7 6 6 7 8 8 7 6 5 5 5
23 23 19 14 14 15 15 12 11 13 15 19 21 20 19 18 17 11 4 5 4 7 12 15 17 16 15 14 12 11 11 9 8 8 7 7 8 8 7 6 5 2 4 5
21 20 22 18 15 14 16 16 14 14 14 14 13 11 8 7 3 0 2 2 2 6 12 15 17 16 14 14 13 12 11 10 9 8 8 7 7 5 5 3 3 2 4 7
16 18 21 24 20 19 18 17 18 17 19 18 16 18 15 5 6 7 6 5 5 7 13 15 17 16 14 13 12 12 12 10 9 9 8 6 5 6 7 4 2 4 4 4
17 16 16 15 19 22 20 17 12 14 15 16 17 17 10 9 5 2 1 0 2 9 13 15 16 14 13 12 11 11 11 10 10 8 7 7 6 6 5 4 6 5 4 4
10 12 16 13 14 16 16 17 16 14 13 15 15 9 3 6 6 4 2 2 4 12 15 15 14 14 14 13 13 11 10 9 8 7 6 7 6 5 5 4 4 4 3 2
8 9 15 17 15 14 16 17 16 13 15 15 16 13 6 7 10 11 11 10 9 14 15 16 16 15 14 14 12 11 9 8 7 7 7 7 6 5 3 4 5 3 2 1
9 6 11 15 15 15 15 16 16 14 12 13 15 12 5 11 13 14 13 13 11 10 13 15 15 15 15 14 12 10 9 7 7 8 8 6 5 4 4 4 3 2 2 2
5 7 12 15 10 6 10 13 15 16 14 14 15 13 7 10 10 11 9 8 7 6 9 13 14 14 14 13 12 10 8 7 8 8 7 6 6 5 4 2 2 2 2 3
5 11 15 18 20 16 14 14 12 12 12 13 14 15 11 13 12 12 12 11 9 6 8 11 13 13 13 13 12 11 10 10 9 9 8 7 4 3 2 3 3 3 4 5
6 8 13 17 18 19 18 17 17 17 17 18 18 12 13 14 15 16 15 13 11 8 8 11 13 14 13 13 13 13 12 10 9 9 7 5 3 3 3 3 3 4 5 6
5 7 11 15 17 18 20 18 18 17 12 11 9 8 13 15 17 17 16 15 13 11 11 12 13 12 12 13 13 13 11 9 8 6 5 2 1 1 2 3 5 6 6 6
8 9 8 12 14 18 12 5 4 4 8 11 9 11 11 12 16 18 17 15 14 14 14 14 14 14 13 13 12 11 9 7 6 4 2 1 1 3 4 6 7 7 6 5
10 9 9 10 14 16 5 6 6 4 6 13 10 9 7 6 9 15 16 15 14 14 14 14 14 14 13 12 10 9 7 5 5 4 3 3 4 5 6 7 6 5 5 5
9 9 10 11 12 9 5 6 6 4 2 12 11 9 8 8 4 5 10 13 14 14 13 13 13 13 11 9 7 7 6 5 5 5 4 4 4 5 6 6 6 6 5 5
8 9 12 13 12 2 6 7 7 5 3 10 8 8 7 6 8 10 12 13 13 14 13 12 11 10 8 6 5 6 6 5 5 5 5 5 4 4 6 5 4 5 5 5
4 4 7 8 10 2 11 7 7 7 7 7 7 8 12 14 15 14 13 13 13 13 12 10 8 7 5 5 6 7 6 5 5 5 5 5 5 6 6 4 4 5 5 5
4 3 2 2 2 6 9 8 8 8 7 7 6 8 13 16 15 15 14 12 11 10 9 8 8 7 5 5 5 7 5 4 5 5 4 4 5 6 6 5 6 5 5 6
4 5 5 1 7 9 10 10 10 9 8 8 8 11 14 16 15 14 13 11 10 9 9 7 7 7 7 6 7 6 5 5 5 4 3 4 5 5 5 5 6 6 7 7
5 4 4 3 4 7 10 10 9 10 11 12 13 14 15 16 15 13 12 11 10 8 7 7 7 8 8 7 7 6 6 5 4 3 3 4 5 5 5 6 6 6 6 6
3 3 3 1 3 4 6 8 9 10 11 13 15 15 14 14 15 14 12 10 9 8 7 7 7 8 9 9 8 7 6 6 5 5 5 4 4 4 4 4 4 5 4 4
Wind_Direction
209 221 225 226 227 239 252 260 262 253 245 242 230 235 243 246 239 226 228 237 230 220 194 166 155 156 153 151 156 160 162 156 159 160 164 155 144 132 116 108 104 93 83 72
217 224 234 237 236 235 243 256 268 276 275 269 256 245 246 254 257 252 242 236 234 226 174 149 157 159 158 157 159 161 162 161 166 159 155 148 139 132 115 104 102 101 94 88
228 230 225 233 245 243 243 250 262 270 278 274 269 262 256 258 261 257 251 243 239 221 180 165 167 162 160 160 162 166 162 160 163 147 137 130 118 121 122 125 118 105 109 101
232 242 246 237 237 243 247 250 259 267 270 267 264 264 252 247 247 244 241 237 237 229 190 178 166 161 159 156 154 153 151 150 146 146 154 156 158 154 143 137 130 124 120 116
233 235 240 239 242 247 251 255 256 256 258 264 266 269 267 263 256 249 238 227 227 229 193 173 165 157 151 148 144 137 133 134 140 149 153 156 148 134 125 121 132 138 135 136
248 244 234 239 234 236 248 253 259 262 263 259 255 258 264 260 260 259 238 210 215 213 174 155 149 140 137 134 132 133 131 130 133 133 133 133 130 127 131 136 151 163 155 152
245 250 244 233 239 226 226 238 244 242 239 249 249 247 255 256 259 265 233 175 157 162 148 140 141 139 139 137 134 135 133 130 127 125 120 116 117 121 130 139 149 183 154 132
233 234 234 228 224 239 222 226 239 255 263 273 282 266 269 279 278 327 68 99 150 144 139 141 141 140 141 141 140 141 138 130 124 118 115 117 132 136 122 95 125 111 66 95
245 241 223 218 213 222 242 232 236 251 268 278 282 292 295 262 212 208 219 224 222 167 143 140 138 138 142 145 145 145 137 128 124 119 116 115 105 97 105 104 77 92 74 107
253 275 283 238 208 210 227 245 251 251 263 273 280 283 302 350 352 346 268 284 63 118 120 128 132 135 137 137 134 129 128 127 124 125 131 123 107 106 117 111 78 72 69 60
255 268 272 262 217 219 218 229 244 260 266 269 272 274 22 16 9 352 330 11 76 114 123 126 128 129 128 130 130 129 129 127 127 125 114 109 104 103 104 101 109 97 74 50
275 265 263 263 259 235 239 241 235 240 251 261 272 280 329 25 28 22 18 28 74 112 124 130 132 131 133 134 133 131 126 124 120 111 101 93 88 89 96 89 77 72 73 311
334 266 253 256 258 254 245 247 254 255 255 256 263 274 3 35 30 29 32 32 51 96 120 130 135 136 137 136 132 127 122 118 111 105 100 96 95 83 65 65 59 25 0 329
320 280 262 257 266 308 289 276 268 263 258 259 266 287 337 47 33 19 30 43 56 91 123 134 135 137 136 132 128 121 109 97 93 91 91 80 68 59 49 40 26 356 340 321
265 266 265 271 279 278 271 273 280 282 284 287 295 304 355 44 37 28 30 34 45 77 116 128 130 130 128 123 116 108 94 83 82 80 77 68 57 37 13 3 351 345 339 341
219 273 281 275 272 276 275 274 274 274 277 282 286 304 45 41 39 37 31 29 39 47 96 116 120 122 122 118 112 103 93 85 79 77 75 66 39 14 344 334 358 10 20 28
271 264 266 268 271 273 265 270 277 280 301 320 324 24 39 42 42 38 33 36 39 51 85 98 104 105 105 105 104 100 96 90 87 85 82 74 24 352 358 7 39 41 36 32
272 284 282 271 269 260 270 322 341 342 20 14 27 41 48 62 66 51 44 49 54 61 74 85 92 94 95 97 96 95 95 96 99 102 100 68 26 34 43 48 46 41 30 22
226 247 263 267 262 258 258 36 22 357 48 31 26 24 30 57 80 56 48 59 67 73 79 84 91 95 95 95 97 100 99 101 103 95 77 56 47 50 55 51 39 36 20 19
216 222 239 253 260 269 75 29 4 312 121 31 19 8 356 341 332 69 64 73 78 81 86 91 94 95 96 96 99 104 106 106 100 92 81 74 68 66 65 53 35 23 16 23
225 225 235 247 254 264 20 342 322 288 28 15 15 15 25 51 82 102 92 88 90 92 94 95 96 97 101 107 106 105 105 98 93 92 86 72 59 90 85 67 48 25 13 22
237 251 257 260 256 227 19 22 30 15 10 21 41 66 92 103 104 104 100 98 99 99 100 101 102 103 107 114 110 101 93 92 92 91 87 74 47 47 66 63 51 38 12 18
291 355 352 10 63 68 52 55 39 25 27 39 64 90 114 115 113 111 109 107 107 109 111 112 112 114 115 114 109 101 103 107 103 95 92 90 85 73 49 44 43 36 25 22
326 344 310 350 94 76 63 59 52 51 57 68 86 105 115 116 116 116 116 116 118 120 122 125 120 114 109 104 95 92 91 91 93 94 103 105 95 89 73 51 43 43 29 21
312 312 301 297 87 84 66 63 69 74 81 88 94 105 114 118 119 120 120 123 128 131 130 127 120 110 104 100 93 88 83 78 74 66 66 83 80 74 77 70 49 50 63 44
314 316 303 337 67 94 94 87 92 96 100 107 109 111 115 119 121 123 127 132 134 132 131 123 114 105 98 92 82 71 65 55 38 42 47 67 71 60 67 90 108 80 89 130
Height
1478 1480 1478 1473 1470 1470 1467 1465 1461 1453 1446 1447 1451 1454 1453 1455 1457 1460 1464 1465 1467 1469 1473 1475 1479 1485 1490 1494 1498 1503 1507 1510 1513 1516 1518 1521 1523 1526 1527 1528 1530 1532 1533 1534
1474 1474 1468 1463 1461 1462 1464 1467 1463 1453 1444 1445 1449 1451 1450 1453 1454 1456 1458 1460 1463 1466 1468 1473 1478 1483 1484 1489 1494 1499 1504 1507 1510 1513 1515 1518 1520 1522 1523 1524 1526 1527 1529 1530
1469 1461 1457 1460 1460 1460 1460 1463 1462 1459 1451 1448 1453 1457 1453 1451 1452 1452 1453 1455 1458 1462 1465 1469 1474 1478 1482 1486 1491 1496 1500 1504 1507 1510 1512 1514 1516 1517 1518 1520 1522 1523 1525 1526
1460 1454 1451 1453 1456 1456 1462 1456 1458 1459 1462 1462 1458 1467 1453 1447 1444 1444 1445 1448 1452 1457 1461 1465 1470 1474 1478 1483 1488 1493 1497 1501 1504 1507 1509 1510 1512 1513 1514 1516 1518 1520 1522 1523
1454 1449 1450 1453 1453 1453 1456 1453 1454 1456 1461 1464 1460 1465 1453 1440 1439 1434 1434 1438 1445 1451 1455 1460 1465 1470 1475 1480 1485 1489 1493 1497 1501 1504 1507 1509 1510 1511 1512 1514 1516 1518 1519 1520
1446 1441 1442 1444 1445 1449 1451 1454 1455 1456 1460 1473 1461 1463 1456 1439 1432 1427 1426 1432 1439 1445 1451 1457 1462 1467 1472 1477 1482 1486 1491 1495 1498 1501 1504 1506 1508 1509 1510 1512 1514 1516 1517 1518
1450 1442 1437 1439 1445 1446 1451 1463 1476 1477 1475 1469 1448 1451 1443 1426 1421 1422 1424 1431 1437 1442 1448 1454 1460 1465 1471 1476 1480 1485 1489 1492 1495 1498 1501 1504 1506 1508 1510 1512 1514 1516 1517 1516
1450 1449 1437 1436 1443 1448 1449 1458 1475 1481 1471 1453 1437 1440 1429 1418 1418 1422 1427 1432 1437 1442 1447 1452 1458 1464 1470 1475 1479 1484 1487 1491 1494 1497 1499 1503 1505 1507 1509 1511 1513 1515 1516 1515
1441 1438 1424 1426 1432 1440 1448 1448 1447 1459 1461 1463 1451 1436 1423 1418 1420 1424 1428 1433 1437 1441 1446 1452 1458 1464 1470 1475 1479 1483 1486 1489 1492 1496 1499 1502 1504 1506 1508 1510 1512 1513 1514 1514
1435 1440 1426 1418 1424 1431 1438 1441 1447 1456 1469 1472 1458 1446 1436 1427 1424 1425 1429 1433 1438 1442 1449 1453 1459 1465 1471 1475 1480 1483 1486 1489 1492 1496 1499 1501 1503 1505 1507 1509 1510 1511 1512 1512
1434 1444 1436 1425 1427 1433 1435 1441 1445 1447 1449 1461 1465 1451 1428 1430 1430 1431 1433 1436 1439 1443 1450 1455 1462 1468 1472 1476 1480 1483 1487 1490 1493 1496 1499 1501 1503 1505 1507 1508 1509 1510 1510 1511
1438 1442 1444 1434 1422 1421 1427 1432 1438 1453 1455 1452 1457 1450 1425 1427 1432 1435 1438 1439 1442 1446 1452 1458 1463 1468 1473 1476 1480 1484 1487 1491 1493 1496 1499 1501 1503 1505 1506 1508 1508 1509 1509 1509
1448 1448 1456 1450 1439 1427 1427 1428 1429 1434 1442 1449 1456 1449 1428 1432 1437 1443 1446 1449 1451 1454 1455 1460 1464 1468 1472 1476 1480 1484 1488 1491 1494 1496 1499 1501 1503 1505 1506 1507 1508 1508 1508 1509
1455 1454 1455 1455 1443 1439 1439 1433 1430 1434 1442 1445 1444 1441 1435 1439 1444 1448 1450 1452 1454 1458 1459 1461 1465 1469 1472 1476 1480 1484 1488 1491 1494 1496 1498 1501 1503 1505 1506 1506 1507 1507 1507 1507
1457 1457 1452 1446 1438 1437 1439 1438 1437 1439 1439 1445 1443 1442 1444 1448 1451 1453 1454 1455 1457 1460 1463 1465 1467 1470 1473 1477 1480 1484 1487 1490 1493 1495 1498 1500 1503 1504 1505 1505 1506 1506 1505 1505
1455 1460 1456 1451 1442 1438 1438 1436 1437 1438 1438 1439 1440 1444 1452 1455 1457 1458 1460 1460 1462 1464 1465 1467 1469 1471 1474 1477 1481 1484 1487 1490 1493 1495 1498 1500 1502 1503 1505 1505 1504 1504 1503 1503
1456 1460 1463 1459 1447 1443 1446 1438 1437 1436 1435 1441 1447 1454 1456 1460 1464 1467 1467 1467 1467 1468 1469 1470 1472 1475 1477 1479 1482 1484 1488 1491 1494 1497 1499 1501 1502 1503 1504 1504 1503 1502 1502 1501
1462 1463 1462 1459 1456 1463 1445 1436 1439 1443 1447 1449 1452 1458 1462 1467 1472 1474 1474 1473 1473 1474 1474 1474 1476 1478 1480 1482 1484 1487 1490 1494 1496 1498 1500 1502 1503 1503 1503 1503 1502 1501 1500 1499
1458 1463 1465 1462 1459 1451 1444 1446 1447 1451 1456 1461 1461 1464 1466 1469 1471 1478 1480 1479 1479 1479 1479 1479 1480 1482 1484 1486 1489 1491 1494 1496 1498 1500 1502 1503 1503 1503 1503 1502 1502 1501 1500 1499
1455 1459 1465 1462 1463 1461 1464 1455 1454 1457 1463 1470 1469 1469 1470 1469 1470 1484 1485 1484 1484 1483 1484 1484 1485 1487 1489 1492 1494 1496 1498 1500 1501 1502 1503 1503 1503 1503 1503 1502 1501 1500 1500 1498
1461 1461 1462 1462 1463 1459 1467 1460 1458 1466 1476 1475 1473 1473 1474 1476 1481 1487 1487 1488 1488 1488 1489 1490 1491 1493 1495 1497 1499 1500 1501 1503 1504 1504 1504 1504 1504 1504 1503 1502 1501 1501 1500 1498
1460 1462 1462 1461 1464 1471 1470 1466 1471 1477 1476 1476 1476 1476 1478 1481 1485 1487 1489 1491 1492 1493 1494 1495 1497 1499 1501 1502 1503 1504 1505 1505 1505 1506 1506 1506 1505 1505 1504 1503 1502 1501 1500 1498
1457 1459 1465 1469 1475 1475 1474 1476 1478 1478 1478 1478 1478 1479 1481 1484 1487 1490 1492 1495 1497 1498 1499 1501 1502 1504 1505 1505 1506 1507 1507 1508 1508 1508 1508 1507 1506 1505 1505 1504 1503 1501 1500 1498
1462 1462 1463 1466 1472 1475 1477 1479 1479 1479 1480 1480 1480 1481 1483 1486 1490 1493 1496 1498 1500 1502 1504 1505 1507 1507 1508 1509 1510 1510 1510 1510 1510 1510 1509 1508 1507 1507 1505 1505 1503 1502 1500 1498
1468 1467 1466 1468 1473 1476 1480 1481 1482 1482 1482 1482 1483 1485 1487 1490 1493 1496 1499 1502 1504 1506 1508 1509 1510 1511 1512 1512 1512 1513 1512 1512 1512 1511 1510 1509 1509 1507 1506 1505 1504 1503 1501 1499
1468 1469 1471 1474 1477 1478 1483 1484 1484 1484 1485 1486 1487 1490 1493 1494 1497 1500 1503 1506 1508 1510 1511 1512 1514 1514 1515 1515 1515 1515 1515 1514 1513 1513 1512 1511 1510 1509 1508 1506 1505 1503 1502 1499